OBJECT E, 61242

Orbit data source: Space-Track

You're viewing an Uncataloged Satellite

Recently launched and/or uncataloged satellites may have evolving metadata. Metadata may include but not limited to: Owner, Maufacturer, Bus, Motor, and Mission.

OBJECT E, 61242 is a satellite owned by Yunyao yuhang (CN) in SSO that was launched on Tue, 24 Sep 2024 UTC via a LIJIAN-1 launch vehicle from the Jiuquan Satellite Launch Center, China (JSC). Unknown objects in Earth's orbit typically refer to objects detected orbiting the Earth but have not yet been identified or cataloged. These objects could be anything from previously untracked satellites, spent rocket stages, debris from satellite collisions, or even natural meteoroids temporarily captured by Earth's gravity.

Loading next visibility...
Identifier
61242, 2024-174E
Orbit
SSO
Last TLE update
4 hours ago
Origin
Flag of CNYYAO (CN / PRC)
Manufacturer
Changguang WJ
Mission
Operational Commercial Weather
Bus & Motor
YY-1, Unknown motor
Mass
~50 kg wet, ~50 kg dry
Launch date (UTC)
2024-09-24 (9 months ago)
Launch vehicle
LIJIAN-1
Launch site
Jiuquan Satellite Launch Center, China (JSC)
Object type
Unknown
Shape & HBR
Box + 1 Pan, 5 m
Radar Cross Section
5.339 m², Medium (>0.1 m² and < 1m²)

Expand to show TLE details & history

TLE from 4 hours ago
0 OBJECT E
1 61242U 24174E   25186.59236734  .00004926  00000-0  21748-3 0  9990
2 61242  97.4513 194.2818 0015218  21.1457 339.0405 15.22115968 43029
Epoch: 2025-07-05T14:13Z
TLE epoch observation values (Epoch: 2025-07-05T14:13:00.538Z)
Latitude
-0.00001°
Longitude
57.20136°
Altitude
492.777 km
Speed
7.624 km/s
True Right ascension
12h 57m 07s
True Declination
0° 00' 00"
Sunlit
Object was in daylight at epoch
Visualization orbit readout
Latitude
-46.10445°
Longitude
-130.39667°
Altitude
526.757 km
Speed
7.593 km/s
Apparent Right ascension
21h 19m 29s
Apparent Declination
-53° 21' 08"
Sunlit
Object is in daylight
Visualization observer readout
Local Sidereal Time
06:17:21
Azimuth
230.828° WSW
Elevation
-56.668°
Doppler factor
1
Orbital elements
Apogee altitude
506.886 km
Perigee altitude
485.963 km
Semi-major axis
6,874.561 km
Eccentricity
0.00152
Inclination
97.4513°
RAAN
194.2818°
Arg. of periapsis
21.1457°
True anomaly
Unknown
Mean anomaly
339.0405°
Eccentric anomaly
Unknown
Mean motion
3.80781 °/min
Orbital period
94.54 mins
BSTAR
0.00021748
Loading maneuver chart data...
Loading SW <> Apogee altitude chart data...
Loading historical data...
Loading historical data...
Loading historical data...
Loading historical data...
Loading historical data...
Loading historical data...
Loading historical data...

OBJECT E Visibility forecast

Observer location: undefined°, undefined°

Span
Click to sort rows by Start time (UTC) header in descending order
Start Az.
Max El. time (UTC)
Max El. Az.
Max El.
End time (UTC)
End Az.
5 mins2025-07-05 23:49:49.810Z117.301° SE2025-07-05 23:51:49.810Z79.083° E20.709°2025-07-05 23:54:49.810Z19.44° NNE
4 mins2025-07-06 12:53:49.810Z55.613° ENE2025-07-06 12:54:49.810Z82.761° E27.57°2025-07-06 12:57:49.810Z156.358° SSE
|